Torna al catalogo

SCOUT G-1 DEB

AttivoPO
NORAD 29211·DEBRIS·🇺🇸 United States

Lanciato Sep 16, 1987 da Vandenberg Space Force Base

Loading…

Prossimi Passaggi (prossime 24 ore)

TLE

AggiornatoSource: Space-Track

Epoca: Sep 14, 2026, 08:47 UTC

1 29211U 87080P   26257.36603813  .00004031  00000-0  18046-2 0  9999
2 29211  90.3147 122.7330 0068388  93.6660 267.2355 14.21214403116046

Traccia SCOUT G-1 DEB in tempo reale con AllMySat

Download on the App Store